Starlink 34816

operational
NORAD ID: 65467 Int'l Des: 2025-195 Owner: SPXS Country: US Constellation: starlink
LEOCIRCULAR

About Starlink 34816

Description loading...

Live Position

Loading 3D Globe...

Upcoming Passes

Altitude History

Altitude vs Time

uPlot chart will show altitude changes over time

Two-Line Element Set

1 65467U 25195K 25293.94844400 .00071319 00000-0 17787-2 0 9997
2 65467 53.1589 189.0435 0000808 353.8198 6.2797 15.39579008 8572
Epoch: Oct 20, 2025 • Age: 14 hours

Current Status

Altitude 452.3 km
Velocity 7.64 km/s
Sub-Earth Point -20.55°S, 50.21°W
Launch Date Sep 3, 2025
Age 0.1 years
Type internet

Technical Details

Classification Payload
Mass 575.00 kg
Dry Mass 530.00 kg
Total Mass 575.00 kg
Length 0.30 m
Diameter 4.10 m
Span 29.00 m
Shape Box + pan
Manufacturer SPXS
Bus Type Starlink V2MO
Phase Status In Orbit
Owner/State SPXS/US

Large Constellations

Loading constellations...